Regional Weather Roundup
Issued by NWS

Home | Current Version | Previous Version | Graphics & Text | Print | Product List | Glossary On
Versions: 1 2 3 4 5 6 7 8 9 10 11 12 13 14 15 16 17 18 19 20 21 22 23 24 25 26 27 28 29 30 31 32 33 34 35 36 37 38 39 40 41 42 43 44 45 46 47 48 49 50
779
ASUS43 KOAX 241410
RWRNE

WEATHER ROUNDUP FOR NEBRASKA
NATIONAL WEATHER SERVICE OMAHA NE
900 AM CDT SAT JUN 24 2017

NOTES: SATELLITE DATA IS BEING USED TO AUGMENT CLOUD COVER ABOVE
       12000 FEET.
       "FAIR" INDICATES FEW OR NO CLOUDS BELOW 12,000 FEET WITH NO
       SIGNIFICANT WEATHER AND/OR OBSTRUCTIONS TO VISIBILITY.

  * THESE STATIONS DO NOT REPORT WEATHER SUCH AS RAIN...SNOW OR FOG.

NEZ001>004-019>022-054>056-241500-
NEBRASKA PANHANDLE

CITY           SKY/WX    TMP DP  RH WIND       PRES   REMARKS
SCOTTSBLUFF    CLOUDY    60  39  45 MISG      30.31R
ALLIANCE       MOSUNNY   57  41  55 W3        30.29R
CHADRON        SUNNY     60  39  45 CALM      30.29R
GORDON         FAIR      58  41  54 W6        30.28R
KIMBALL        CLOUDY    56  42  61 SE6       30.34R
SIDNEY         CLOUDY    58  37  45 S8        30.32F
$$

NEZ057>060-069>072-079>082-241500-
SOUTHWEST NEBRASKA

CITY           SKY/WX    TMP DP  RH WIND       PRES   REMARKS
NORTH PLATTE   CLOUDY    58  46  64 W5        30.29R
IMPERIAL       CLOUDY    58  45  62 N6        30.31R
LEXINGTON      CLOUDY    60  48  66 W3        30.27S
MCCOOK         CLOUDY    56  47  71 W3        30.29R
OGALLALA       CLOUDY    60  46  59 CALM      30.30S
$$

NEZ005>010-023>029-035>040-094-241500-
NORTH CENTRAL NEBRASKA

CITY           SKY/WX    TMP DP  RH WIND       PRES   REMARKS
VALENTINE      MOSUNNY   62  31  31 W9        30.24S
AINSWORTH      SUNNY     62  38  41 W14       30.24S
BROKEN BOW     CLOUDY    61  42  49 CALM      30.25R
O`NEILL        SUNNY     62  42  47 W12G17    30.21R
ORD            SUNNY     60  44  55 N3        30.24R
THEDFORD       CLOUDY    61  39  44 NW3       30.27R
$$

NEZ041-046>049-061>064-073>077-083>087-241500-
SOUTH CENTRAL NEBRASKA

CITY           SKY/WX    TMP DP  RH WIND       PRES   REMARKS
GRAND ISLAND   MOSUNNY   63  45  51 W7        30.24R
AURORA         SUNNY     66  45  47 NW3       30.24R
HASTINGS       SUNNY     63  45  51 W3        30.26R
HEBRON         SUNNY     65  47  51 CALM      30.24R
HOLDREGE       CLOUDY    61  44  53 CALM      30.27R
KEARNEY *      MOSUNNY   63  39  42 W3        30.26R
YORK           SUNNY     63  41  45 NW7       30.23R
$$

NEZ011>018-030>034-042>045-241500-
NORTHEAST NEBRASKA

CITY           SKY/WX    TMP DP  RH WIND       PRES   REMARKS
NORFOLK        SUNNY     64  42  44 W7        30.18R
ALBION         SUNNY     63  40  43 W6        30.22R
BLAIR          SUNNY     62  46  57 W6        30.18R
FREMONT        SUNNY     63  45  51 W6        30.19S
TEKAMAH        SUNNY     64  43  46 NW3       30.17R
WAYNE          SUNNY     65  42  43 SW9       30.17S
$$

NEZ050>053-065>068-078-088>093-241500-
SOUTHEAST NEBRASKA

CITY           SKY/WX    TMP DP  RH WIND       PRES   REMARKS
LINCOLN        SUNNY     65  48  54 CALM      30.21R
OMAHA EPPLEY   SUNNY     66  45  46 NW5       30.18R
BEATRICE       SUNNY     62  50  63 SW6       30.23R
FALLS CITY     SUNNY     65  51  60 NW3       30.19R
NEBRASKA CITY  SUNNY     65  47  53 CALM      30.20R
PLATTSMOUTH    MOSUNNY   62  47  56 NW7       30.18S
$$

NEZ044-045-051>053-067-241500-
OMAHA AREA

CITY           SKY/WX    TMP DP  RH WIND       PRES   REMARKS
OMAHA EPPLEY   SUNNY     66  45  46 NW5       30.18R
BLAIR          SUNNY     62  46  57 W6        30.18R
FREMONT        SUNNY     63  45  51 W6        30.19S
MILLARD        SUNNY     66  47  51 NW3       30.18S
OFFUTT AFB     SUNNY     63  46  55 NW5       30.18R
PLATTSMOUTH    MOSUNNY   62  47  56 NW7       30.18S
WAHOO          FAIR      65  42  42 W7        30.19S
$$




USA.gov is the U.S. government's official web portal to all federal, state and local government web resources and services.